Regional Weather Roundup
Issued by NWS

Home | Current Version | Previous Version | Text Only | Print | Product List | Glossary Off
Versions: 1 2 3 4 5 6 7 8 9 10 11 12 13 14 15 16 17 18 19 20 21 22 23 24 25 26 27 28 29 30 31 32 33 34 35 36 37 38 39 40 41 42 43 44 45 46 47 48 49 50

000
ASUS43 KLOT 271608
RWRIL

ILLINOIS REGIONAL WEATHER ROUNDUP
NATIONAL WEATHER SERVICE CHICAGO/ROMEOVILLE IL
1100 AM CDT THU AUG 27 2015

NOTE: "FAIR" INDICATES FEW OR NO CLOUDS BELOW 12,000 FEET WITH NO
SIGNIFICANT WEATHER AND/OR OBSTRUCTIONS TO VISIBILITY.

* THESE STATIONS ARE NOT UNDER NWS QUALITY CONTROL. THEY ALSO MAY NOT
  REPORT WEATHER SUCH AS PRECIPITATION OR FOG.

ILZ001-002-007-009-015-016-024-271700-
NORTHWEST ILLINOIS

CITY           SKY/WX    TMP DP  RH WIND       PRES   REMARKS
MOLINE         SUNNY     69  57  65 S7        30.18R
STERLING*      SUNNY     70  57  64 S5        30.17S
SAVANNA*       SUNNY     70  56  61 S3        30.19S
$$

ILZ003-004-008-010-011-017-018-271700-
NORTH CENTRAL ILLINOIS

CITY           SKY/WX    TMP DP  RH WIND       PRES   REMARKS
ROCKFORD       MOSUNNY   68  56  65 S6        30.20F
FREEPORT*      SUNNY     67  58  72 S5        30.20F
ROCHELLE*      SUNNY     66  55  67 S6        30.20F
DE KALB*       SUNNY     66  56  68 S9        30.21S
PERU*          SUNNY     67  53  60 E6        30.20S
$$

ILZ005-006-012>014-019>023-271700-
NORTHEAST ILLINOIS

CITY           SKY/WX    TMP DP  RH WIND       PRES   REMARKS
CHICAGO-OHARE  PTSUNNY   67  52  58 VRB6      30.19F
CHICAGO-MIDWAY PTSUNNY   68  52  56 S6        30.19F
AURORA         PTSUNNY   68  56  65 SE6       30.20F
LANSING*       CLOUDY    65  53  65 CALM      30.20F
JOLIET*        MOSUNNY   69  55  62 E6        30.20F
WAUKEGAN       SUNNY     68  54  60 SE9       30.19S
DUPAGE AIRPORT PTSUNNY   66  53  63 VRB5      30.19F
KANKAKEE*      CLOUDY    67  56  69 E6        30.20F
WHEELING         N/A    N/A N/A N/A MISG      30.20F
MORRIS*        PTSUNNY   65  55  70 SE6       30.20F
ROMEOVILLE*    PTSUNNY   67  53  61 SE6       30.19F
NORTHERLY ISL    N/A     64  53  67 NE2         N/A
$$

LMZ740>746-271700-
SOUTHERN LAKE MICHIGAN

STATION/POSITION SKY/WX   TEMP    WIND        PRES    VSBY  WAVE
                          AIR SEA DIR/SP/G                  HT/PER
                          (F)     (DEG/KT/KT) (MB)    (MI)  (FT/S)
SOUTHERN BUOY              64 67  140/  8/ 10 1022.6R
WILMETTE HARBOR            61 58                N/A
HARRISON CRIB              62      60/  3/  4   N/A
BURNHAM HARBOR             65      50/  2/  3   N/A
CALUMET HARBOR             64      70/  2/  3   N/A
BURNS HARBOR               64     180/  6/  8 1023.4F
MICHIGAN CITY              62     110/  7/  9   N/A
MICHIGAN CITY 6N           65 71  130/  6/  8   N/A           1/ 2
ST. JOSEPH                 65 71  170/  6/  8   N/A           1
$$

ILZ025>027-034>036-040-047-049-050-058-095>099-271700-
WEST-CENTRAL ILLINOIS

CITY           SKY/WX    TMP DP  RH WIND       PRES   REMARKS
QUINCY         MOSUNNY   70  56  61 S8        30.17R
GALESBURG*     MOSUNNY   68  58  71 SE6       30.18S
MACOMB*        SUNNY     68  59  72 SE8       30.19F
JACKSONVILLE*  SUNNY     72  58  62 CALM      30.16F
PITTSFIELD*    SUNNY     71  58  63 E5        30.18S
$$

ILZ028>032-037-038-041>044-048-051>054-059>061-271700-
CENTRAL ILLINOIS

CITY           SKY/WX    TMP DP  RH WIND       PRES   REMARKS
PONTIAC        MOSUNNY   68  58  70 SE5       30.21S
BLOOMINGTON    SUNNY     69  57  65 E7        30.19F
DECATUR        MOSUNNY   71  58  63 E8        30.17F
PEORIA         SUNNY     70  54  56 VRB3      30.18F
LACON*         SUNNY     67  55  66 SE6       30.18F
LINCOLN*       SUNNY     71  55  56 E5        30.18S
SPRINGFIELD    SUNNY     71  56  58 E6        30.17F
TAYLORVILLE    MOSUNNY   70  59  68 NE7       30.17S
$$

ILZ033-039-045-046-055>057-062-063-271700-
EAST-CENTRAL ILLINOIS

CITY           SKY/WX    TMP DP  RH WIND       PRES   REMARKS
CHAMPAIGN      MOSUNNY   70  58  65 E6        30.18F
RANTOUL*       PTSUNNY   71  58  65 SE6       30.18F
MATTOON        SUNNY     71  57  61 VRB3      30.16S
PARIS*         SUNNY     71  62  73 E3        30.17F
$$

ILZ079-100>102-271700-
SOUTHWEST ILLINOIS

CITY           SKY/WX    TMP DP  RH WIND       PRES   REMARKS
ALTON          SUNNY     68  57  68 E6        30.17S
BELLEVILLE     SUNNY     70  60  69 VRB2      30.14F
CAHOKIA*       SUNNY     73  57  57 CALM      30.15F
SPARTA*        SUNNY     71  58  64 CALM      30.16F
$$

ILZ064>066-069>071-074>076-080>082-084>086-088>090-092>094-271700-
SOUTH-CENTRAL ILLINOIS

CITY           SKY/WX    TMP DP  RH WIND       PRES   REMARKS
CARBONDALE     SUNNY     74  59  59 E7        30.14F
CAIRO*         SUNNY     75  65  70 NE6       30.13F
EFFINGHAM*     SUNNY     72  56  56 E6        30.17F
MARION         SUNNY     77  59  53 SE7       30.15F
MT. VERNON     SUNNY     73  57  56 E6        30.16S
CENTRALIA*     SUNNY     71  57  62 CALM      30.14F
SALEM*         SUNNY     72  57  58 SE3       30.15F
METROPOLIS*    SUNNY     76  64  65 E5        30.14F
$$

ILZ067-068-072-073-078-083-087-091-271700-
SOUTHEAST ILLINOIS

CITY           SKY/WX    TMP DP  RH WIND       PRES   REMARKS
LAWRENCEVILLE  SUNNY     74  61  63 E5        30.15F
FLORA*         SUNNY     71  58  62 SE5       30.15F
FAIRFIELD*     SUNNY     73  61  66 E5        30.14F
HARRISBURG*    SUNNY     74  62  64 E6        30.15F
ROBINSON*      SUNNY     73  61  65 E5        30.16F
CARMI*         SUNNY     75  63  64 E6        30.14F
$$

ABBREVIATIONS USED IN REMARKS
   TC - TEMPERATURE IN CELSIUS
  WCI - WIND CHILL INDEX
   HX - HEAT INDEX
  VSB - VISIBILITY
$$




USA.gov is the U.S. government's official web portal to all federal, state and local government web resources and services.